Regional Weather Roundup
Issued by NWS

Home | Current Version | Previous Version | Text Only | Print | Product List | Glossary On
Versions: 1 2 3 4 5 6 7 8 9 10 11 12 13 14 15 16 17 18 19 20 21 22 23 24 25 26 27 28 29 30 31 32 33 34 35 36 37 38 39 40 41 42 43 44 45 46 47 48 49 50
000
ASUS46 KSTO 110015
RWRCA

NORTHERN AND CENTRAL CA REGIONAL WEATHER ROUNDUP
NATIONAL WEATHER SERVICE SACRAMENTO CA
400 PM PST SAT DEC 10 2016

NOTE: FAIR INDICATES FEW OR NO CLOUDS BELOW 12,000 FEET WITH NO
SIGNIFICANT WEATHER AND/OR OBSTRUCTIONS TO VISIBILITY.

CAZ001-003-110100-
NORTHWEST AREA

CITY           SKY/WX    TMP DP  RH WIND       PRES   REMARKS
CRESCENT CITY  MOCLDY    52  46  80 W5        30.12R
UKIAH          CLOUDY    53  46  77 N8        30.06S
$$

CAZ006-505>513-110100-
BAY AREA

CITY           SKY/WX    TMP DP  RH WIND       PRES   REMARKS
SANTA ROSA     CLOUDY    57  51  80 NW6       30.03R
SAN RAFAEL     N/A       59  MM  MM MISG
NAPA           CLOUDY    60  56  86 SW8       30.04R
CONCORD        CLOUDY    61  56  83 SW10      30.04R
OAKLAND CITY   N/A       60  MM  MM MISG
OAKLAND        CLOUDY    59  57  93 SW7       30.06R
SAN FRAN CITY  N/A       57  MM  98 MISG
SAN FRAN ARPT  LGT RAIN  59  56  89 W10       30.06R
LIVERMORE      LGT RAIN  60  57  89 SW10      30.03S
HAYWARD        CLOUDY    61  56  83 SW5       30.05R
REDWOOD CITY   N/A       59  MM  99 MISG
MOFFETT ARPT   LGT RAIN  60  58  92 SE6       30.05S FOG
SAN JOSE ARPT  LGT RAIN  62  56  80 S7        30.06R
$$
CAZ034-037-514>518-110100-
CENTRAL COAST

CITY           SKY/WX    TMP DP  RH WIND       PRES   REMARKS
WATSONVILLE    LGT RAIN  58  58 100 S15       30.08S FOG
SALINAS        FOG       61  59  93 SW9       30.08R VSB 3/4
MONTEREY       LGT RAIN  61  59  93 S9        30.08S FOG
SAN LUIS OBISP CLOUDY    62  59  90 N6        30.12S FOG
SANTA MARIA    CLOUDY    59  59 100 NW9       30.13S FOG
$$
CAZ015-016-110100-
NORTHERN SACRAMENTO VALLEY

CITY           SKY/WX    TMP DP  RH WIND       PRES   REMARKS
REDDING        MOCLDY    58  51  78 CALM      29.97R
RED BLUFF      MOCLDY    58  50  75 CALM      29.98R
OROVILLE         N/A    N/A N/A N/A MISG      29.99S
$$
CAZ016>018-110100-
SOUTHERN SACRAMENTO VALLEY

CITY           SKY/WX    TMP DP  RH WIND       PRES   REMARKS
AUBURN         CLOUDY    55  55 100 SW9G20    30.03R VSB 1/4
BEALE AFB      DRIZZLE   59  59 100 S15       29.97F
LINCOLN        CLOUDY    55  55 100 S9        30.01R
MARYSVILLE     LGT RAIN  60  58  92 S15       29.98F
SAC INTL ARPT  CLOUDY    60  60 100 S14       30.01R
MATHER AIRPORT CLOUDY    59  59 100 S7        30.02R VSB 1
DOWNTOWN SAC   N/A       60  MM  MM MISG
SAC EXEC ARPT  LGT RAIN  60  60 100 S8        30.02S
VACAVILLE      CLOUDY    60  59  96 S8        30.04R
TRAVIS AFB     CLOUDY    59  58  97 SW9       30.01R
$$
CAZ019>021-110100-
SAN JOAQUIN VALLEY

CITY           SKY/WX    TMP DP  RH WIND       PRES   REMARKS
STOCKTON       LGT RAIN  61  61 100 SE7       30.03S
MODESTO        RAIN      62  59  90 SE7       30.04S FOG
MERCED         CLOUDY    61  58  90 CALM      30.05S FOG
LEMOORE        CLOUDY    68  58  70 E8        30.06F
FRESNO         LGT RAIN  66  56  70 E3        30.08F
HANFORD        CLOUDY    68  60  75 E5        30.07F
PORTERVILLE    MOCLDY    67  57  70 MISG      30.09R
BAKERSFIELD    MOCLDY    69  54  58 CALM      30.07F
$$
CAZ011-012-071-110100-
NORTHERN MOUNTAINS

CITY           SKY/WX    TMP DP  RH WIND       PRES   REMARKS
YREKA          PTCLDY    44  34  67 W7        29.98R
MOUNT SHASTA   PTCLDY    47  41  80 CALM      29.95R
ALTURAS        MOCLDY    41  33  73 SW10      29.93R
$$
CAZ011-012-071-110100-
SIERRA NEVADA MTNS

CITY           SKY/WX    TMP DP  RH WIND       PRES   REMARKS
BLUE CANYON    RAIN      45  44  97 S14G24    30.04R VSB 1/4
TRUCKEE        RAIN      45  39  81 SW10G25   29.98F
TAHOE VLY ARPT RAIN      42  38  85 S9        30.01R FOG
MAMMOTH LAKES  LGT RAIN  49  32  51 SW26G35   30.05S
$$




USA.gov is the U.S. government's official web portal to all federal, state and local government web resources and services.